Flag for Ukraine Weather past 2 weeks in Kyiv, Ukraine

Now
32 °F

Light rain. Ice fog.


Feels Like: 20 °F
Forecast: 38 / 54 °F
Wind: 20 mph from East

Location: Kyiv

Current Time: Mar 29, 2015 at 6:22:47 AM

Latest Report: Mar 29, 2015 at 6:00 AM


Visibility: 1 mi

Pressure: 29.86 "Hg

Humidity: 93%

Dew point: 30 °F

Location of KyivLocation

Historic Weather in Kyiv — Graph

°F

Kyiv temperature yesterday

Maximum temperature yesterday: 57 °F (at 2:00 PM)
Minimum temperature yesterday: 43 °F (at 10:30 PM)
Average temperature yesterday: 51 °F

Past Weeks' High & Low Weather Summary

 TemperatureHumidityPressure
High59 °F (Mar 25, 3:00 PM)100% (Mar 14, 6:30 AM)30.83 "Hg (Mar 14, 6:30 AM)
Low21 °F (Mar 23, 5:00 AM)23% (Mar 17, 1:00 PM)29.83 "Hg (Mar 22, 1:30 AM)
Average41 °F60%30.25 "Hg
* Reported Mar 14 4:00 AM — Mar 29 5:00 AM, Kyiv, Weather by CustomWeather, © 2015

Note: Actual official high and low records may vary slightly from our data, if they occured in-between our weather recording intervals... More about our weather records

Advertising

Kyiv weather history for previous 24 hours

 ConditionsComfort  
Time TempWeatherWind HumidityBarometerVisibility
5:00 AM
Sun, Mar 29
32 °FRain. Ice fog.20 mph100%29.86 "Hg1 mi
4:30 AM34 °FLight rain. Mostly cloudy.17 mph93%29.89 "Hg2 mi
4:00 AM36 °FLight rain. Mostly cloudy.15 mph87%29.89 "Hg4 mi
2:30 AM36 °FLight rain. Mostly cloudy.17 mph93%29.89 "HgN/A
2:00 AM37 °FLight rain. Mostly cloudy.17 mph87%29.89 "HgN/A
1:30 AM37 °FLight rain. Mostly cloudy.17 mph93%29.89 "HgN/A
1:00 AM39 °FLight rain. Mostly cloudy.13 mph87%29.89 "HgN/A
12:30 AM43 °FLight rain. Overcast.15 mph71%29.89 "HgN/A
12:00 AM43 °FLight rain. Overcast.8 mph81%29.89 "HgN/A
11:30 PM
Sat, Mar 28
43 °FSprinkles. Partly cloudy.6 mph81%29.89 "HgN/A
10:30 PM43 °FSprinkles. Partly cloudy.15 mph81%29.92 "HgN/A
10:00 PM45 °FSprinkles. Partly cloudy.17 mph66%29.92 "HgN/A
9:30 PM48 °FPassing clouds.15 mph54%29.92 "HgN/A
9:00 PM48 °FClear.17 mph54%29.92 "Hg10 mi
8:30 PM48 °FPartly cloudy.20 mph54%29.92 "HgN/A
8:00 PM48 °FPartly cloudy.15 mph58%29.92 "HgN/A
7:30 PM50 °FPartly cloudy.17 mph54%29.92 "HgN/A
7:00 PM50 °FPartly cloudy.15 mph54%29.92 "HgN/A
6:30 PM50 °FPartly cloudy.20 mph54%29.92 "HgN/A
6:00 PM52 °FBroken clouds.15 mph50%29.89 "HgN/A
5:30 PM52 °FBroken clouds.20 mph50%29.92 "HgN/A
5:00 PM52 °FBroken clouds.15 mph50%29.92 "HgN/A
4:30 PM54 °FSunny.20 mph51%29.89 "Hg10 mi
4:01 PM54 °FSunny.17 mph47%29.89 "Hg10 mi
3:46 PM54 °FSunny.15 mph47%29.89 "Hg10 mi
3:30 PM55 °FSunny.15 mph44%29.89 "Hg10 mi
3:00 PM55 °FPassing clouds.17 mph44%29.89 "HgN/A
2:30 PM55 °FSunny.20 mph44%29.89 "Hg10 mi
2:00 PM57 °FPassing clouds.20 mph41%29.89 "HgN/A
1:30 PM55 °FPassing clouds.20 mph44%29.89 "HgN/A
1:00 PM55 °FPassing clouds.20 mph44%29.92 "HgN/A
12:30 PM54 °FSunny.17 mph51%29.92 "Hg10 mi
12:00 PM54 °FSunny.20 mph51%29.92 "Hg10 mi
11:30 AM52 °FSunny.20 mph58%29.95 "Hg10 mi
11:00 AM50 °FPassing clouds.17 mph58%29.95 "HgN/A
10:30 AM50 °FSunny.20 mph58%29.95 "Hg10 mi
10:00 AM50 °FSunny.17 mph58%29.95 "Hg10 mi
9:30 AM50 °FPassing clouds.20 mph58%29.95 "HgN/A
9:00 AM48 °FPassing clouds.20 mph62%29.95 "HgN/A
8:30 AM48 °FSunny.20 mph62%29.98 "Hg10 mi
8:00 AM50 °FPartly sunny.20 mph58%29.95 "HgN/A
7:30 AM48 °FBroken clouds.22 mph62%29.95 "HgN/A
7:00 AM50 °FPartly sunny.17 mph58%29.95 "HgN/A
6:30 AM50 °FSunny.17 mph58%29.95 "Hg10 mi
6:00 AM50 °FSunny.20 mph58%29.95 "Hg10 mi
Weather by CustomWeather, © 2015

See weather overviewHow to use our weather pages